Location: Ascher Silberstein Elementary School
(32.7682°N, 96.7203°W)
Time: 21:04:07
(UTC+00:00)

Daily predictions for brighter satellites

Satellite Brightness Start Highest point End
(mag) Time Altitude Azimuth Time Altitude Azimuth Time Altitude Azimuth
Milstar 3 Cent rocket 3.6 12:01:50 15° WSW 12:05:35 34° SSW 12:12:54 10° SE
Meteor 2-17 Rocket 4.3 12:00:07 10° N 12:06:10 77° W 12:12:11 10° S
Cosmos 1933 3.4 12:06:46 10° NNW 12:10:37 53° W 12:14:27 10° S
ERS-2 1.5 12:08:27 10° NNE 12:11:24 83° ESE 12:14:18 10° SSW
Cosmos 1627 Rocket 4.5 12:05:52 10° N 12:12:14 75° W 12:18:31 10° S
SAR-Lupe-2 4.2 12:09:03 10° NNE 12:12:35 59° E 12:16:06 10° S
Cosmos 1862 3.4 12:09:21 10° SSW 12:13:03 48° W 12:16:47 10° N
Cosmos 2151 2.9 12:08:59 10° S 12:13:08 85° E 12:17:21 10° N
COSMO-SKYMED 1 2.8 12:09:04 10° S 12:13:15 49° W 12:17:28 10° NNW
Meteor 2-3 Rocket 4.3 12:08:23 10° SW 12:13:22 33° WNW 12:18:23 10° NNW
PSLV R/B 3.5 12:10:29 10° N 12:14:43 62° WNW 12:18:54 10° SSW
GENESIS II 4.0 12:18:38 10° SSW 12:22:26 79° WNW 12:26:19 10° NNE
USA 215 3.5 12:16:56 10° NNE 12:23:07 48° NW 12:29:19 10° WSW
Meteor 1-31 Rocket 4.4 12:20:25 10° NNE 12:23:57 37° E 12:27:30 10° SSE
SJ-7 4.4 12:22:28 10° NNE 12:26:35 89° ESE 12:30:39 10° SSW
BlueWalker 3 2.1 12:25:35 14° NW 12:28:46 55° SW 12:32:29 10° SSE
SKYMED 3 4.4 12:25:21 10° SSE 12:29:29 89° ENE 12:33:38 10° NNW
ATLAS 2A CENTAUR R/B 3.5 12:32:21 10° WSW 12:34:35 15° SSW 12:36:06 10° S
SMAP 3.4 12:32:34 10° NNE 12:37:12 71° E 12:41:50 10° S
Cosmos 1110 Rocket 4.0 12:32:43 10° NNW 12:38:01 72° WSW 12:43:15 10° S
Cosmos 1842 Rocket 3.8 12:34:21 10° N 12:38:47 78° E 12:43:13 10° S
BREEZE-M R/B 3.2 12:32:26 10° NW 12:39:12 83° SW 12:42:39 10° SE
Aureole 2 4.2 12:36:40 10° NNW 12:39:41 75° ENE 12:42:33 10° SSE
Cosmos 1437 Rocket 3.1 12:38:12 10° SSW 12:41:41 38° W 12:45:09 10° N
Cosmos 1782 4.3 12:39:31 10° NW 12:42:00 17° W 12:44:28 10° SW
H-2A R/B 3.6 12:40:40 10° NW 12:42:22 12° WNW 12:44:05 10° W
Helios 1B rocket 2.8 12:41:14 10° N 12:44:57 40° WNW 12:48:40 10° SW
CENTAUR R/B 4.5 12:37:25 10° NNW 12:45:22 40° NE 12:53:51 10° ESE
CZ-4B R/B 4.1 12:43:40 10° NNE 12:47:43 83° E 12:51:55 10° S
DELTA 2 DEB (DPAF) 4.0 12:44:26 10° SSE 12:48:43 85° WSW 12:53:01 10° NNW
Cosmos 1515 4.3 12:46:19 10° NNW 12:49:34 33° W 12:52:50 10° SSW
SL-16 R/B 2.7 23:36:25 10° NNW 23:42:04 70° WSW 23:47:40 10° S
APEX 3.7 23:48:56 10° SW 23:51:59 43° WNW 23:54:46 10° N
Cosmos 1943 3.7 23:47:29 10° N 23:52:43 38° ENE 23:57:56 10° SE
CZ-2D R/B 4.1 23:49:51 10° S 23:53:27 53° W 23:57:02 10° NNW
Cosmos-2242 3.0 23:49:07 10° S 23:53:27 84° E 23:57:47 10° N
